Terminal Aerodrome Forecast
Issued by NWS

Home | Current Version | Previous Version | Text Only | Print | Product List | Glossary On
Versions: 1 2 3 4 5 6 7 8 9 10 11 12 13 14 15 16 17 18 19 20 21 22 23 24 25 26 27 28 29 30 31 32 33 34 35 36 37 38 39 40
000
FTUS45 KBOU 272320
TAFAPA
TAF
KAPA 272320Z 2800/2824 VRB04KT P6SM FEW110 SCT150 BKN220
     FM280200 18010KT P6SM SCT120 BKN220=

USA.gov is the U.S. government's official web portal to all federal, state and local government web resources and services.